Location: Gad�tanya
(48.0500°N, 20.8500°E)
Time: 11:51:52
(UTC+00:00)

Spot 2 Rocket - Pass Details

Date: 05 July 2020
Orbit: 757 x 772 km, 98.6° (Epoch: 15 August)

Event Time Altitude Azimuth Distance (km) Brightness Sun altitude
Exits shadow 19:36:33 - 165° (SSE) 2,601 5.7 -8.1°
Reaches altitude 10° 19:37:18 10° 166° (SSE) 2,301 5.4 -8.1°
Maximum altitude 19:42:24 86° 255° (WSW) 779 3.6 -8.7°
Drops below altitude 10° 19:47:32 10° 345° (NNW) 2,327 7.2 -9.3°
Sets 19:49:52 0° 346° (NNW) 3,259 8.1 -9.5°
